sat.trackr.live / text

‹ back to catalog

STARLINK-11251 [DTC]

NORAD 60930 · 2024-155G

PAYLOAD ACTIVE UNKNOWN

§ Identity

Operator
Country
US
Launch date
2024-08-31
Launch site
AFWTR
Launch vehicle
Mass (kg)
RCS (m²)

Purposes: comms

External: N2YO · Heavens-Above · Gunter

§ Orbital elements

Epoch: 2026-05-24T21:38:36.148128Z

Period
91.74 min
Inclination
53.1584°
Eccentricity
0.0000884
Mean motion
15.69706686 rev/d
Perigee alt
359.1 km
Apogee alt
360.3 km
Semi-major
6,737.9 km
B*
1.1053e-5
RAAN
325.4588°
Arg perigee
94.3001°
Mean anomaly
265.8118°
Rev number
10,037

§ Raw data

STARLINK-11251 [DTC]1 60930U 24155G   26144.90180727  .00000751  00000+0  11053-4 0  99922 60930  53.1584 325.4588 0000884  94.3001 265.8118 15.69706686100374

JSON: /api/v1/satellites/60930 · /tle

For live sub-satellite position, see the globe view (requires WebGL).

§ Visibility from observer

Set your observer location to see the next 7 days of passes ≥ 10°. The values pass through the URL so the page stays shareable.

No JS? Fill the form by hand. The geolocation button needs JavaScript.